[[{"header":{"parameterUnit":"m.s-1","parameterCategory":1,"la1":30.2991,"la2":30.254,"lo1":-89.0895,"lo2":-89.0444,"dy":0.0017,"dx":0.0017,"nx":28,"ny":28,"refTime":"2024-03-13T21:00:00:Z","depth":0,"parameterNumber":2,"parameterNumberName":"U-component_of_WINDS"},"data":[0,0,0,0,0,0,0,0,0,0,0,0,0,0,0,0,0,0,0,0,0,0,0,0,0,0,0,0,0,0,0,0,0,0,0,0,0,0,0,0,0,0,0,0,0,0,0,0,0,0,0,0,0,0,0,0,0,0,-2.2908,-2.2908,0,-2.2917,-2.2917,-2.2917,-2.2904,-2.2903,-2.2903,-2.2903,-2.2911,-2.2912,-2.2912,0,0,0,0,0,0,0,0,0,0,0,0,0,-2.288,-2.2881,-2.2908,-2.2908,-2.2908,-2.2917,-2.2917,-2.2917,-2.2904,-2.2903,-2.2903,-2.2902,-2.2911,-2.2912,-2.2912,0,0,0,0,0,0,0,0,0,0,0,0,0,-2.2891,-2.2881,-2.2908,-2.2902,-2.2902,-2.2917,-2.2917,-2.2917,-2.2904,-2.2903,-2.2903,-2.2902,-2.2911,-2.2911,-2.2912,-2.2932,0,0,-2.2915,-2.2916,0,0,0,0,0,0,0,0,-2.289,-2.2892,-2.2903,-2.2903,-2.2902,-2.2909,-2.291,-2.2922,-2.2904,-2.2903,-2.2903,-2.2902,-2.2911,-2.2912,-2.2915,-2.2933,-2.2933,-2.2915,-2.2916,-2.2917,-2.2917,0,0,0,0,0,0,0,-2.289,-2.2891,-2.2911,-2.2903,-2.2903,-2.29,-2.2901,-2.2912,-2.2911,-2.2903,-2.2902,-2.2904,-2.291,-2.2914,-2.2915,-2.2933,-2.2915,-2.2916,-2.2917,-2.2917,-2.2969,-2.297,0,0,0,0,0,0,-2.2889,-2.2891,-2.2911,-2.2911,-2.2895,-2.2901,-2.2902,-2.2907,-2.2911,-2.291,-2.2904,-2.2903,-2.2913,-2.2914,-2.2915,-2.2939,-2.2916,-2.2917,-2.2918,-2.2968,-2.2969,-2.297,0,0,0,0,0,0,-2.2889,-2.2891,-2.2911,-2.2901,-2.2903,-2.2902,-2.2908,-2.2908,-2.2911,-2.2911,-2.2911,-2.2908,-2.2912,-2.2914,-2.2928,-2.2939,-2.2918,-2.2919,-2.2967,-2.2969,-2.297,-2.2986,0,0,0,0,0,0,-2.2888,-2.2891,-2.2898,-2.2901,-2.2904,-2.2923,-2.2909,-2.2908,-2.2913,-2.2912,-2.2915,-2.2915,-2.2912,-2.2927,-2.2929,-2.294,-2.292,-2.2966,-2.2968,-2.2969,-2.2984,-2.2987,-2.299,0,0,0,0,0,-2.2887,-2.2902,-2.2898,-2.2901,-2.2912,-2.2924,-2.2925,-2.2922,-2.2914,-2.2921,-2.2922,-2.2914,-2.2938,-2.2929,-2.2931,-2.2942,-2.2966,-2.2968,-2.2969,-2.2983,-2.2987,-2.299,0,0,0,0,0,0,-2.2899,-2.2902,-2.2898,-2.2914,-2.2919,-2.2922,-2.293,-2.2926,-2.2932,-2.2931,-2.2926,-2.2927,-2.2943,-2.2944,-2.2934,-2.2962,-2.2951,-2.2953,-2.296,-2.2964,-2.2966,-2.2965,-2.292,0,0,0,0,0,-2.2904,-2.2912,-2.2915,-2.2929,-2.2932,-2.2931,-2.2936,-2.2933,-2.2937,-2.2939,-2.294,-2.2945,-2.2954,-2.2959,-2.2967,-2.2986,-2.2986,-2.2994,-2.2997,-2.3,-2.3001,-2.3012,-2.3015,-2.2976,-2.2976,-2.2976,0,0,-2.2913,-2.2916,-2.2921,-2.2931,-2.2935,-2.2944,-2.2932,-2.2943,-2.295,-2.2941,-2.2954,-2.2956,-2.2961,-2.2978,-2.2986,-2.298,-2.3013,-2.3002,-2.3004,-2.3004,-2.3014,-2.3017,-2.3021,-2.2977,-2.2977,-2.2977,0,0,-2.2934,-2.2937,-2.2949,-2.2954,-2.2959,-2.2959,-2.2963,-2.2966,-2.2967,-2.2982,-2.2975,-2.2984,-2.2999,-2.3003,-2.3007,-2.3033,-2.3027,-2.3036,-2.305,-2.3061,-2.3064,-2.3066,-2.3075,-2.3078,-2.3038,-2.3038,-2.3038,0,-2.2944,-2.2958,-2.2956,-2.2967,-2.2972,-2.2966,-2.2979,-2.2983,-2.2991,-2.2994,-2.2988,-2.3008,-2.3011,-2.3029,-2.3036,-2.3039,-2.3043,-2.3034,-2.3063,-2.3066,-2.3069,-2.3077,-2.308,-2.3039,-2.3039,-2.3039,-2.3039,0,-2.2971,-2.2981,-2.299,-2.2999,-2.3005,-2.3017,-2.3017,-2.3024,-2.3022,-2.3023,-2.3038,-2.3042,-2.3051,-2.3056,-2.3053,-2.3074,-2.307,-2.3064,-2.3052,-2.3073,-2.3081,-2.3084,-2.3041,-2.304,-2.304,-2.304,0,0,-2.2996,-2.3006,-2.3009,-2.3013,-2.3021,-2.3028,-2.3041,-2.305,-2.3056,-2.3063,-2.3073,-2.3088,-2.3082,-2.3087,-2.3086,-2.3095,-2.3116,-2.3088,-2.3088,-2.3092,-2.3139,-2.3142,-2.3146,-2.3113,-2.3113,-2.3114,-2.3138,0,-2.3017,-2.3038,-2.3038,-2.3058,-2.3067,-2.3063,-2.3074,-2.308,-2.3083,-2.3091,-2.3094,-2.3104,-2.3096,-2.3099,-2.3109,-2.3111,-2.3125,-2.311,-2.3121,-2.3122,-2.3118,-2.315,-2.3153,-2.3175,-2.3141,-2.3141,-2.3142,0,-2.3043,-2.3051,-2.3072,-2.3079,-2.3083,-2.3093,-2.3102,-2.3111,-2.3119,-2.312,-2.3127,-2.3124,-2.3138,-2.3128,-2.3146,-2.3136,-2.3142,-2.3144,-2.3145,-2.3144,-2.3131,-2.3148,-2.3182,-2.3185,-2.3147,-2.3146,-2.3146,0,-2.3059,-2.3075,-2.309,-2.3094,-2.3103,-2.311,-2.3114,-2.3121,-2.3127,-2.3136,-2.314,-2.3151,-2.3156,-2.3164,-2.3165,-2.3158,-2.3184,-2.3174,-2.3185,-2.3185,-2.3188,-2.3187,-2.3221,-2.3195,-2.3195,-2.3195,-2.3195,0,-2.3081,-2.3093,-2.3097,-2.3106,-2.312,-2.3121,-2.3136,-2.314,-2.3146,-2.3156,-2.3154,-2.3164,-2.3165,-2.3175,-2.3177,-2.3192,-2.3194,-2.3195,-2.3195,-2.3194,-2.3194,-2.3196,-2.3194,-2.3196,-2.3195,-2.3195,-2.3195,0,-2.3099,-2.3102,-2.3118,-2.3126,-2.3129,-2.3139,-2.3146,-2.3155,-2.3158,-2.3171,-2.3174,-2.3179,-2.3191,-2.3193,-2.3207,-2.3208,-2.3226,-2.3225,-2.3223,-2.3222,-2.3233,-2.3231,-2.3268,-2.3273,-2.3245,-2.3245,-2.3245,0,-2.3112,-2.3122,-2.3131,-2.3138,-2.3143,-2.3153,-2.316,-2.3163,-2.317,-2.318,-2.3188,-2.32,-2.3209,-2.3229,-2.3234,-2.3245,-2.3243,-2.3256,-2.3245,-2.3244,-2.3242,-2.3241,-2.3242,-2.3257,-2.3257,-2.3257,-2.3257,0,-2.3134,-2.3136,-2.3145,-2.3156,-2.3165,-2.3173,-2.3182,-2.3188,-2.3191,-2.32,-2.3212,-2.322,-2.3235,-2.3247,-2.3259,-2.3263,-2.3261,-2.3262,-2.3264,-2.3262,-2.3261,-2.3261,-2.3227,-2.326,-2.326,-2.3259,-2.3259,-2.3259,-2.3149,-2.3158,-2.3167,-2.3178,-2.3185,-2.3193,-2.3202,-2.3207,-2.3218,-2.323,-2.3232,-2.3245,-2.3254,-2.327,-2.3276,-2.3287,-2.3283,-2.3287,-2.3288,-2.3289,-2.3289,-2.3261,-2.3289,-2.3289,-2.3289,-2.3289,-2.3289,0,-2.3171,-2.3176,-2.3187,-2.3199,-2.3208,-2.3207,-2.3217,-2.3225,-2.3237,-2.3246,-2.3256,-2.3271,-2.3283,-2.329,-2.3302,-2.331,-2.3309,-2.3313,-2.3311,-2.3312,-2.3292,-2.3288,-2.3313,-2.3313,-2.3313,-2.3313,-2.3313,-2.3313,-2.3182,-2.3197,-2.32,-2.3219,-2.3225,-2.3238,-2.3244,-2.3252,-2.3259,-2.3276,-2.3286,-2.3291,-2.33,-2.3313,-2.3324,-2.3326,-2.333,-2.3334,-2.3335,-2.3316,-2.3313,-2.3311,-2.3307,-2.3335,-2.3335,-2.3354,-2.3354,-2.3354]},{"header":{"parameterUnit":"m.s-1","parameterCategory":1,"la1":30.2991,"la2":30.254,"lo1":-89.0895,"lo2":-89.0444,"dy":0.0017,"dx":0.0017,"nx":28,"ny":28,"refTime":"2024-03-13T21:00:00:Z","depth":0,"parameterNumber":3,"parameterNumberName":"V-component_of_WINDS"},"data":[0,0,0,0,0,0,0,0,0,0,0,0,0,0,0,0,0,0,0,0,0,0,0,0,0,0,0,0,0,0,0,0,0,0,0,0,0,0,0,0,0,0,0,0,0,0,0,0,0,0,0,0,0,0,0,0,0,0,3.5546,3.5545,0,3.5529,3.5529,3.5529,3.5556,3.5557,3.5558,3.5559,3.5541,3.5539,3.5538,0,0,0,0,0,0,0,0,0,0,0,0,0,3.56,3.5599,3.5546,3.5545,3.5545,3.5529,3.5529,3.5529,3.5556,3.5557,3.5558,3.556,3.5541,3.554,3.5538,0,0,0,0,0,0,0,0,0,0,0,0,0,3.5579,3.5599,3.5546,3.5557,3.5558,3.5529,3.5529,3.5529,3.5556,3.5557,3.5559,3.556,3.5542,3.554,3.5538,3.5497,0,0,3.5531,3.5531,0,0,0,0,0,0,0,0,3.558,3.5577,3.5556,3.5556,3.5557,3.5546,3.5542,3.5518,3.5556,3.5557,3.5559,3.5561,3.5541,3.5539,3.5533,3.5496,3.5495,3.5531,3.553,3.5529,3.5529,0,0,0,0,0,0,0,3.5582,3.5578,3.5539,3.5555,3.5556,3.5563,3.5561,3.5537,3.5541,3.5557,3.5559,3.5556,3.5542,3.5535,3.5533,3.5495,3.5531,3.553,3.5528,3.5527,3.5426,3.5424,0,0,0,0,0,0,3.5582,3.5579,3.554,3.5539,3.5573,3.5561,3.5559,3.5548,3.5542,3.5542,3.5555,3.5558,3.5538,3.5535,3.5532,3.5486,3.5529,3.5527,3.5526,3.5427,3.5425,3.5424,0,0,0,0,0,0,3.5583,3.5578,3.554,3.5559,3.5555,3.5558,3.5546,3.5547,3.554,3.5541,3.5541,3.5547,3.5539,3.5535,3.5506,3.5485,3.5526,3.5524,3.5429,3.5426,3.5424,3.5391,0,0,0,0,0,0,3.5585,3.5578,3.5563,3.5559,3.5554,3.5514,3.5545,3.5546,3.5537,3.554,3.5533,3.5534,3.554,3.5509,3.5504,3.5483,3.5523,3.5431,3.5428,3.5425,3.5394,3.5388,3.5383,0,0,0,0,0,3.5586,3.5553,3.5562,3.5557,3.5535,3.5513,3.551,3.5518,3.5535,3.552,3.552,3.5534,3.5488,3.5506,3.55,3.5479,3.5432,3.5429,3.5425,3.5397,3.5389,3.5383,0,0,0,0,0,0,3.5554,3.5553,3.5563,3.5527,3.552,3.5518,3.5498,3.551,3.5497,3.5501,3.5511,3.5509,3.5478,3.5475,3.5495,3.544,3.5463,3.5458,3.5443,3.5436,3.543,3.5432,3.5521,0,0,0,0,0,3.5543,3.5525,3.5525,3.5494,3.549,3.5495,3.5486,3.5493,3.5486,3.5482,3.5481,3.5473,3.5457,3.5446,3.5431,3.5394,3.5393,3.5376,3.5371,3.5366,3.5362,3.5344,3.5337,3.5413,3.5413,3.5413,0,0,3.5519,3.5516,3.5505,3.5488,3.5483,3.5465,3.5492,3.5471,3.5458,3.5479,3.5452,3.545,3.5442,3.5409,3.5395,3.5406,3.5341,3.5362,3.5358,3.5357,3.534,3.5332,3.5326,3.541,3.5411,3.5411,0,0,3.5467,3.5463,3.5438,3.5433,3.5426,3.543,3.5424,3.542,3.542,3.5393,3.5409,3.5393,3.5365,3.5359,3.5353,3.5301,3.5313,3.5296,3.5266,3.5248,3.5242,3.5237,3.522,3.5214,3.5292,3.5291,3.5291,0,3.5439,3.5413,3.5423,3.5402,3.5395,3.5414,3.5388,3.5383,3.5371,3.5366,3.5379,3.5346,3.5341,3.5308,3.5296,3.5289,3.5283,3.5297,3.5242,3.5237,3.5233,3.5216,3.521,3.5289,3.529,3.529,3.529,0,3.5379,3.5361,3.5341,3.5331,3.5321,3.5298,3.5305,3.5293,3.5302,3.5304,3.5277,3.5273,3.5259,3.5251,3.5258,3.5219,3.5227,3.5241,3.5264,3.5223,3.5208,3.5202,3.5287,3.5287,3.5288,3.5288,0,0,3.5306,3.5303,3.5295,3.5292,3.5286,3.5272,3.525,3.5237,3.5228,3.522,3.5202,3.5179,3.5193,3.5185,3.5192,3.5176,3.5137,3.5192,3.5192,3.5183,3.5095,3.5086,3.5078,3.5145,3.5144,3.5143,3.5097,0,3.5256,3.5219,3.5228,3.5192,3.5176,3.5194,3.5175,3.517,3.5172,3.5159,3.516,3.5144,3.5163,3.5159,3.5144,3.5145,3.512,3.5148,3.513,3.5129,3.5132,3.507,3.5059,3.5016,3.5091,3.509,3.5089,0,3.5192,3.5183,3.5145,3.5144,3.5138,3.5121,3.5111,3.5097,3.5092,3.5095,3.5087,3.5097,3.5076,3.51,3.5071,3.5091,3.5083,3.5083,3.5082,3.5081,3.5107,3.5069,3.5002,3.4996,3.508,3.508,3.5081,0,3.5145,3.5122,3.5098,3.5094,3.5091,3.5079,3.5077,3.5074,3.5066,3.5057,3.5052,3.504,3.5033,3.5024,3.5031,3.5047,3.5002,3.5025,3.5004,3.5004,3.4994,3.4995,3.4926,3.4988,3.4988,3.4988,3.4988,0,3.5088,3.5065,3.5077,3.5061,3.5036,3.5047,3.5021,3.5022,3.5018,3.5004,3.5018,3.5004,3.5014,3.5001,3.5006,3.4983,3.4979,3.4981,3.4983,3.4981,3.4981,3.4977,3.498,3.4986,3.4986,3.4987,3.4987,0,3.5031,3.5038,3.5012,3.5013,3.5012,3.4994,3.4994,3.498,3.4984,3.4965,3.4961,3.4966,3.4952,3.4958,3.4942,3.4946,3.4916,3.4921,3.4918,3.492,3.4899,3.4901,3.4826,3.4818,3.4883,3.4883,3.4882,0,3.4995,3.4978,3.4977,3.4969,3.4967,3.4953,3.4946,3.4956,3.4948,3.4941,3.4928,3.4915,3.4905,3.4881,3.4883,3.4872,3.4878,3.4852,3.4876,3.4875,3.4879,3.4881,3.4879,3.4848,3.4847,3.4846,3.4846,0,3.4932,3.4936,3.4926,3.4916,3.4907,3.49,3.4894,3.4887,3.4897,3.4887,3.4873,3.4865,3.485,3.4837,3.4827,3.4825,3.4837,3.4838,3.4833,3.4831,3.483,3.4832,3.4907,3.484,3.4841,3.4841,3.4841,3.4842,3.4885,3.4872,3.487,3.4857,3.4854,3.4849,3.4837,3.4839,3.4828,3.4817,3.4823,3.4807,3.4804,3.4792,3.4788,3.4776,3.4786,3.4778,3.4776,3.4774,3.4772,3.4831,3.4774,3.4774,3.4774,3.4774,3.4775,0,3.4824,3.4824,3.4813,3.4805,3.4796,3.4808,3.4803,3.4794,3.478,3.4776,3.4767,3.4751,3.4739,3.4741,3.473,3.472,3.4725,3.4717,3.4718,3.4718,3.4763,3.477,3.4713,3.4713,3.4713,3.4713,3.4713,3.4713,3.4791,3.4769,3.4774,3.4751,3.4751,3.4736,3.4732,3.4727,3.4725,3.4707,3.4698,3.4699,3.4698,3.4687,3.4677,3.4678,3.4674,3.4663,3.4666,3.4708,3.4715,3.472,3.4727,3.4662,3.4662,3.4622,3.4622,3.4622]}]]